STARLINK-3806, 52378

Orbit data source: Space-Track

STARLINK-3806, 52378 is a payload satellite owned by SpaceX/Seattle (US) in LEO that was launched on Fri, 29 Apr 2022 UTC via an FALCON 9 launch vehicle from the Air Force Eastern Test Range (AFETR). Payload-class satellites include a variety of spacecraft equipped with specific instruments for various scientific and technological missions. These include communications satellites like Starlink; space stations such as the ISS; scientific satellites like the Hubble; Earth observation satellites from companies like Planet Labs, Umbra, and HawkEye 360; GPS; miniature CubeSats for education and research; and military/defense satellites.

Loading next visibility...
Identifier
52378, 2022-045AZ
Orbit
LEO
Country
Flag of USUS
Related business
Manufacturer
SpaceX/Seattle
Mission
Operational Commercial Communications
Bus & Motor
STARLINK, Unknown motor
Mass
297 kg wet, ~275 kg dry
Launch date (UTC)
2022-04-29 (4 years ago)
Launch vehicle
FALCON 9
Launch site
Air Force Eastern Test Range (AFETR)
Object type
Payload
Rocket body
Debris
Shape & HBR
Box + 1 Pan, 10.1 m
Radar Cross Section
11.087 m², Large (>1 m²)

Expand to show TLE details & history
Last TLE update: 18 hours ago

TLE from 18 hours ago
0 STARLINK-3806
1 52378U 22045AZ  25349.87775553  .00000441  00000-0  45797-4 0  9993
2 52378  53.2163 205.3671 0001540  89.9696 270.1473 15.08841123203279
Epoch: 2025-12-15T21:03Z
TLE epoch observation values (Epoch: 2025-12-15T21:03:58.077Z)
Latitude
-0.00001°
Longitude
164.6051°
Altitude
540.635 km
Speed
7.593 km/s
True Right ascension
13h 41m 28s
True Declination
0° 00' 00"
Sunlit
Object was in daylight at epoch
Visualization orbit readout
Latitude
Unknown
Longitude
Unknown
Altitude
Unknown
Speed
Unknown
Apparent Right ascension
Unknown
Apparent Declination
Unknown
Sunlit
N/A
Visualization observer readout
Local Sidereal Time
13:42:16
Azimuth
Unknown
Elevation
Unknown
Doppler factor
Unknown
Orbital elements
Apogee altitude
541.05 km
Perigee altitude
538.92 km
Semi-major axis
6,918.122 km
Eccentricity
0.00015
Inclination
53.2163°
RAAN
205.3671°
Arg. of periapsis
89.9696°
True anomaly
270.12965°
Mean anomaly
270.1473°
Eccentric anomaly
270.13848°
Mean motion
3.77191 °/min
Orbital period
95.44 mins
BSTAR
0.000045797
Loading maneuver chart data...
Computing Atmospheric mass density...
Loading historical data...
Loading historical data...
Loading historical data...
Loading historical data...
Loading historical data...
Loading historical data...
Loading historical data...

Documentation

Showing up to 5 results
|